CW3508 Weather Reports


Display with metric or nautical units.
time (UTC)temp
F
wind
direction
speed
MPH
gust
MPH
rain 1hr
in
rain 24hr
in
rain mn
in
humidity
%
barometer
mb
20260503232017 68 152 0.0 2.0 0.00 0.00 0.00 53 1014.1
20260503231533 68 152 1.0 2.0 0.00 0.00 0.00 53 1014.1
20260503231044 68 152 0.0 1.0 0.00 0.00 0.00 51 1014.3
20260503230546 68 152 0.0 1.0 0.00 0.00 0.00 52 1014.3
20260503230044 69 152 0.0 1.0 0.00 0.00 0.00 53 1014.3
20260503225528 69 152 0.0 2.0 0.00 0.00 0.00 53 1014.3
20260503225032 69 152 1.0 2.0 0.00 0.00 0.00 53 1014.3
20260503224520 69 152 0.0 2.0 0.00 0.00 0.00 51 1014.3
20260503224037 70 152 1.0 2.0 0.00 0.00 0.00 52 1014.3
20260503223545 70 152 0.0 2.0 0.00 0.00 0.00 51 1014.3
20260503223046 70 152 1.0 2.0 0.00 0.00 0.00 52 1014.3
20260503222540 70 152 0.0 2.0 0.00 0.00 0.00 46 1014.5
20260503222045 70 152 0.0 2.0 0.00 0.00 0.00 47 1014.5
20260503221529 70 152 1.0 3.0 0.00 0.00 0.00 47 1014.5
20260503220540 70 145 1.0 2.0 0.00 0.00 0.00 44 1014.5
20260503220043 70 145 0.0 2.0 0.00 0.00 0.00 47 1014.5
20260503215551 70 145 0.0 3.0 0.00 0.00 0.00 46 1014.5
20260503215029 70 145 1.0 3.0 0.00 0.00 0.00 45 1014.5
20260503214535 70 145 0.0 2.0 0.00 0.00 0.00 45 1014.5
20260503214020 70 145 0.0 3.0 0.00 0.00 0.00 46 1014.7
20260503213047 70 145 1.0 3.0 0.00 0.00 0.00 48 1014.7
20260503212533 70 145 1.0 3.0 0.00 0.00 0.00 46 1015.0
20260503212020 71 145 0.0 2.0 0.00 0.00 0.00 48 1015.0
20260503211539 71 145 0.0 1.0 0.00 0.00 0.00 43 1015.0
20260503211052 71 145 0.0 2.0 0.00 0.00 0.00 48 1015.0
20260503210537 71 145 0.0 2.0 0.00 0.00 0.00 46 1015.0
20260503210032 71 148 0.0 2.0 0.00 0.00 0.00 47 1015.0
20260503205517 71 318 0.0 4.0 0.00 0.00 0.00 45 1015.2
20260503205052 71 147 1.0 4.0 0.00 0.00 0.00 44 1015.2
20260503204052 71 190 1.0 3.0 0.00 0.00 0.00 43 1015.5
20260503203519 72 179 0.0 5.0 0.00 0.00 0.00 44 1015.5
20260503203100 72 184 2.0 5.0 0.00 0.00 0.00 44 1015.5
20260503202527 72 147 1.0 2.0 0.00 0.00 0.00 42 1015.9
20260503202038 72 145 1.0 2.0 0.00 0.00 0.00 46 1015.9
20260503201540 71 145 0.0 3.0 0.00 0.00 0.00 44 1015.9
20260503201022 71 283 0.0 2.0 0.00 0.00 0.00 44 1016.1
20260503200535 71 292 0.0 4.0 0.00 0.00 0.00 44 1016.1
20260503200018 71 166 1.0 4.0 0.00 0.00 0.00 45 1016.1
20260503195522 71 194 1.0 3.0 0.00 0.00 0.00 46 1016.4
20260503195042 71 173 1.0 3.0 0.00 0.00 0.00 43 1016.4
20260503194543 71 162 1.0 3.0 0.00 0.00 0.00 44 1016.4
20260503194042 71 281 1.0 6.0 0.00 0.00 0.00 44 1016.6
20260503193529 72 163 2.0 6.0 0.00 0.00 0.00 43 1016.6
20260503193032 72 319 1.0 3.0 0.00 0.00 0.00 44 1016.6
20260503192517 72 321 1.0 3.0 0.00 0.00 0.00 43 1016.8
20260503191539 71 301 1.0 2.0 0.00 0.00 0.00 44 1016.8
20260503191029 71 317 1.0 3.0 0.00 0.00 0.00 47 1017.1
20260503190526 71 154 1.0 3.0 0.00 0.00 0.00 44 1017.1
20260503190044 71 151 1.0 3.0 0.00 0.00 0.00 41 1017.1
20260503185532 71 227 1.0 4.0 0.00 0.00 0.00 45 1017.4
20260503185031 71 200 1.0 4.0 0.00 0.00 0.00 42 1017.4
20260503184017 72 175 2.0 5.0 0.00 0.00 0.00 44 1017.6
20260503183516 72 183 2.0 5.0 0.00 0.00 0.00 43 1017.6
20260503183016 72 156 1.0 5.0 0.00 0.00 0.00 40 1017.6
20260503182536 72 319 0.0 5.0 0.00 0.00 0.00 42 1017.8
20260503182018 72 234 2.0 5.0 0.00 0.00 0.00 41 1017.8
20260503181551 72 165 1.0 3.0 0.00 0.00 0.00 42 1017.8
20260503181025 72 167 0.0 4.0 0.00 0.00 0.00 43 1018.1
20260503180524 72 167 2.0 4.0 0.00 0.00 0.00 44 1018.1
20260503180033 72 191 1.0 3.0 0.00 0.00 0.00 45 1018.1
20260503175537 71 167 1.0 3.0 0.00 0.00 0.00 46 1018.1
20260503175032 71 169 1.0 4.0 0.00 0.00 0.00 47 1018.1
20260503174532 71 171 1.0 4.0 0.00 0.00 0.00 46 1018.1
20260503174049 70 160 1.0 4.0 0.00 0.00 0.00 43 1018.2
20260503173550 70 273 1.0 3.0 0.00 0.00 0.00 43 1018.2
20260503173024 70 254 1.0 5.0 0.00 0.00 0.00 46 1018.2
20260503172602 70 148 2.0 5.0 0.00 0.00 0.00 44 1018.5
20260503172026 70 288 1.0 5.0 0.00 0.00 0.00 44 1018.5
20260503171540 70 16 1.0 5.0 0.00 0.00 0.00 44 1018.5
20260503171038 70 105 1.0 2.0 0.00 0.00 0.00 47 1018.7
20260503170541 70 27 0.0 2.0 0.00 0.00 0.00 42 1018.7
20260503150535 59 179 1.0 2.0 0.00 0.00 0.00 69 1018.8
20260503130534 49 167 0.0 1.0 0.00 0.00 0.00 95 1018.7
20260503110537 45 167 0.0 0.0 0.00 0.00 0.00 91 1017.5
20260503081543 48 167 0.0 1.0 0.00 0.02 0.00 87 1016.4
20260503081026 49 167 0.0 1.0 0.00 0.02 0.00 87 1016.2
20260503080534 49 167 0.0 1.0 0.00 0.02 0.00 87 1016.2
20260503072528 49 167 0.0 1.0 0.00 0.02 0.00 88 1016.0
20260503072033 49 167 0.0 1.0 0.00 0.02 0.00 88 1016.0
20260503071536 49 167 0.0 1.0 0.00 0.02 0.00 88 1016.0
20260503071020 49 167 0.0 1.0 0.00 0.02 0.00 87 1015.9
20260503070533 49 167 0.0 1.0 0.00 0.02 0.00 87 1015.9
20260503055038 50 167 0.0 1.0 0.00 0.02 0.00 86 1015.7
20260503054521 50 167 0.0 1.0 0.00 0.02 0.00 85 1015.7
20260503054029 51 167 0.0 1.0 0.00 0.02 0.00 85 1015.5
20260503053536 51 167 0.0 1.0 0.00 0.02 0.00 85 1015.5
20260503053027 51 167 0.0 1.0 0.00 0.02 0.00 84 1015.5
20260503052532 51 167 0.0 1.0 0.00 0.02 0.00 84 1015.2
20260503052032 51 167 0.0 1.0 0.00 0.02 0.00 84 1015.2
20260503051518 51 167 0.0 0.0 0.00 0.02 0.00 84 1015.2
20260503051035 51 167 0.0 0.0 0.00 0.02 0.00 84 1015.0
20260503050538 51 167 0.0 1.0 0.00 0.02 0.00 83 1015.0
20260503050047 51 167 0.0 1.0 0.00 0.02 0.02 83 1015.0
20260503045532 51 167 0.0 1.0 0.00 0.02 0.02 82 1015.0
20260503045045 52 167 0.0 1.0 0.00 0.02 0.02 82 1015.0
20260503044526 52 167 0.0 0.0 0.00 0.02 0.02 81 1015.0
20260503044039 52 167 0.0 0.0 0.00 0.02 0.02 80 1014.9
20260503043528 52 167 0.0 0.0 0.00 0.02 0.02 80 1014.9
20260503043017 52 167 0.0 1.0 0.00 0.02 0.02 79 1014.9
20260503042518 52 167 0.0 1.0 0.00 0.02 0.02 79 1014.7
20260503042031 52 167 0.0 0.0 0.00 0.02 0.02 79 1014.7
20260503041519 53 167 0.0 0.0 0.00 0.02 0.02 79 1014.7
20260503041026 53 167 0.0 0.0 0.00 0.02 0.02 78 1014.5
20260503040523 53 167 0.0 1.0 0.00 0.02 0.02 78 1014.5
20260503040020 53 167 0.0 1.0 0.00 0.02 0.02 77 1014.5
20260503035520 53 167 0.0 1.0 0.00 0.02 0.02 77 1014.5
20260503035034 53 167 0.0 1.0 0.00 0.02 0.02 77 1014.5
20260503034523 53 167 0.0 1.0 0.00 0.02 0.02 77 1014.5
20260503034030 53 167 0.0 1.0 0.00 0.02 0.02 76 1014.5
20260503033533 54 167 0.0 0.0 0.00 0.02 0.02 76 1014.5
20260503033022 54 167 0.0 0.0 0.00 0.02 0.02 76 1014.5
20260503032528 54 167 0.0 1.0 0.00 0.02 0.02 76 1014.5
20260503032035 54 167 0.0 1.0 0.00 0.02 0.02 75 1014.5
20260503031525 54 167 0.0 0.0 0.00 0.02 0.02 75 1014.5
20260503031032 54 167 0.0 0.0 0.00 0.02 0.02 74 1014.5
20260503030604 55 167 0.0 0.0 0.00 0.02 0.02 74 1014.5
20260503030046 55 167 0.0 0.0 0.00 0.03 0.02 74 1014.5
20260503025530 55 167 0.0 0.0 0.00 0.03 0.02 73 1014.3
20260503025031 55 167 0.0 1.0 0.00 0.03 0.02 72 1014.3
20260503024538 55 167 0.0 1.0 0.00 0.03 0.02 71 1014.3
20260503024027 55 167 0.0 0.0 0.00 0.03 0.02 71 1014.2
20260503023526 56 167 0.0 0.0 0.00 0.03 0.02 69 1014.2
20260503023025 56 167 0.0 0.0 0.00 0.03 0.02 69 1014.2
20260503022032 56 167 0.0 0.0 0.00 0.03 0.02 68 1014.0
20260503021538 57 167 0.0 0.0 0.00 0.03 0.02 68 1014.0
20260503021044 57 167 0.0 1.0 0.00 0.03 0.02 68 1013.9
20260503020534 57 167 0.0 1.0 0.00 0.03 0.02 66 1013.9
20260503020038 57 167 0.0 0.0 0.00 0.05 0.02 65 1013.9
20260503015541 58 167 0.0 0.0 0.00 0.05 0.02 66 1013.6
20260503015025 58 167 0.0 0.0 0.00 0.05 0.02 64 1013.6
20260503014537 58 167 0.0 0.0 0.00 0.05 0.02 62 1013.6
20260503014035 58 167 0.0 0.0 0.00 0.05 0.02 62 1013.4
20260503013520 59 167 0.0 0.0 0.00 0.05 0.02 61 1013.4
20260503013035 59 167 0.0 0.0 0.00 0.05 0.02 60 1013.4
20260503012543 59 167 0.0 1.0 0.00 0.05 0.02 60 1013.2
20260503012045 60 167 0.0 1.0 0.00 0.05 0.02 59 1013.2
20260503011528 61 167 0.0 1.0 0.00 0.05 0.02 58 1013.2
20260503011032 61 167 0.0 1.0 0.00 0.05 0.02 56 1013.0
20260503010531 62 167 0.0 1.0 0.00 0.05 0.02 57 1013.0
20260503010035 62 167 0.0 0.0 0.00 0.05 0.02 55 1013.0
20260503005523 62 167 0.0 0.0 0.00 0.05 0.02 56 1012.9
20260503005026 63 167 0.0 0.0 0.00 0.05 0.02 54 1012.9
20260503004534 63 167 0.0 0.0 0.00 0.05 0.02 53 1012.9
20260503004056 63 167 0.0 1.0 0.00 0.05 0.02 53 1012.8
20260503003535 64 167 0.0 1.0 0.00 0.05 0.02 55 1012.8
20260503003039 64 167 0.0 1.0 0.00 0.05 0.02 51 1012.8
20260503002526 64 167 0.0 1.0 0.00 0.05 0.02 52 1012.6
20260503002032 64 167 0.0 1.0 0.00 0.05 0.02 52 1012.6
20260503001521 64 167 0.0 1.0 0.00 0.05 0.02 50 1012.6
20260503001023 65 167 0.0 1.0 0.00 0.05 0.02 52 1012.4
20260503000518 65 167 0.0 2.0 0.00 0.05 0.02 51 1012.4
20260503000020 65 167 1.0 2.0 0.00 0.05 0.02 49 1012.4
20260502235529 65 294 0.0 2.0 0.00 0.05 0.02 52 1012.3
20260502235019 65 294 0.0 2.0 0.00 0.05 0.02 49 1012.3
20260502234533 66 294 0.0 1.0 0.00 0.05 0.02 50 1012.3
20260502234018 66 294 1.0 2.0 0.00 0.05 0.02 48 1012.0
20260502233026 66 294 0.0 2.0 0.00 0.05 0.02 48 1012.0
20260502232559 66 294 1.0 2.0 0.00 0.05 0.02 47 1012.0